"Pseudo-MPEC" for CAXZ7R2

Created 2024 Oct 3 4:22:08 UT using Find_Orb

Click here for an explanation of pseudo-MPECs

 
 Astrometry: 
     CAXZ7R2 1C2024 09 30.25198 00 16 36.19 +36 54 17.7    ~A2MM 20.8 GVNEOCPG96
     CAXZ7R2 1C2024 10 01.30896 00 42 24.96 +31 51 38.1    ~A2CM 20.1 GVNEOCPG96
     CAXZ7R2 1C2024 10 01.31422 00 42 31.97 +31 50 00.2    ~A2CM 20.7 GVNEOCPG96
     CAXZ7R2*1C2024 10 02.26212501 05 21.203+26 34 01.96   ~A277 20.78GVNEOCPG96
     CAXZ7R2 1C2024 10 02.26776001 05 28.597+26 32 03.80   ~A277 20.00GVNEOCPG96
     CAXZ7R2 1C2024 10 02.27340201 05 36.150+26 30 04.21   ~A277x      VNEOCPG96
     CAXZ7R2  C2024 10 02.29489801 06 02.968+26 22 26.81   ~A27q 19.9 GVNEOCPH01
     CAXZ7R2  C2024 10 02.29870701 06 07.927+26 21 06.17   ~A27q 20.6 GVNEOCPH01
     CAXZ7R2  C2024 10 02.30913801 06 21.542+26 17 25.11   ~A27q 19.9 GVNEOCPH01
     CAXZ7R2  C2024 10 02.31539201 06 29.696+26 15 12.27   ~A27q 20.3 GVNEOCPH01
     CAXZ7R2 KC2024 10 02.47140301 09 55.148+25 18 58.64   ~A2Bq 20.34GVNEOCPI52
     CAXZ7R2 KC2024 10 02.47766401 10 03.508+25 16 41.05   ~A2Bq 20.14GVNEOCPI52
     CAXZ7R2 KC2024 10 02.47904201 10 05.308+25 16 10.31   ~A2Bq       VNEOCPI52

Station data:
(G96) Mt. Lemmon Survey  (N32.442729 W110.788720)  US/Arizona.  Observer E.
   J. Christensen. 1.5-m reflector + 10K CCD.
(H01) Magdalena Ridge Observatory, Socorro  (N33.984833 W107.189333)  US/New
   Mexico.  Observers W. H. Ryan, E. V. Ryan. Measurer W. H. Ryan. 2.4-m
   f/8.9 reflector + CCD.
(I52) Steward Observatory, Mt. Lemmon Station  (N32.442570 W110.788920)
   US/Arizona.  Observers T. A. Pruyne, B. M. Africano, E. J. Christensen, G.
   A. Farneth, D. C. Fuls, A. R. Gibbs, A. D. Grauer, H. Gröller, J. A.
   Johnson, R. A. Kowalski, S. M. Larson, G. J. Leonard, D. Rankin, R. L.
   Seaman, F. C. Shelly, K. W. Wierzchoś. 1.0-m prime focus + CCD.

Orbital elements:  CAXZ7R2
   Perihelion 2024 Oct 4.41977 +/- 0.00991 TT = 10:04:28 (JD 2460587.91977)
Epoch 2024 Oct  2.0 TT = JDT 2460585.5   Earth MOID: 0.0300      AutoNEOCP
M 358.58616189 +/- 0.007            (J2000 ecliptic)
n   0.58428593 +/- 0.000758         Peri.  179.81955 +/- 0.010
a   1.41705190 +/- 0.00122          Node   192.09690 +/- 0.0010
e   0.2730575 +/- 0.000592          Incl.   12.95010 +/- 0.019
P   1.687/616.125d         H 26.83  G  0.15   U  7.9
q 1.03011518 +/- 5.08e-5    Q 1.80398863 +/- 0.00239
12 of 13 observations 2024 Sept. 30-Oct. 2; mean residual 0".27
Residuals in arcseconds: 
240930 G96  .03+  .08+    241002 G96( 2.1+  1.2-)   241002 I52  .18+  .40-    
241001 G96  .55+  .51-    241002 H01  .06+  .04-    241002 I52  .22+  .21+    
241001 G96  .59-  .23+    241002 H01  .08-  .11-    241002 I52  .35-  .10-    
241002 G96  .19-  .51+    241002 H01  .12+  .08-    
241002 G96  .10-  .22+    241002 H01  .17+  .05-    

Ephemerides (geocentric):
Date (UTC) HH   RA             Dec           delta  r     elong  mag " sig PA
---- --------  ------------   ------------  ------ ------ -----  --- --------
2024 10 03 04  01 26 02.126   +21 03 33.08  .03156 1.0302 159.2 20.4 .243  82
2024 10 03 05  01 26 58.015   +20 47 47.73  .03154 1.0302 159.3 20.4 .251  83
2024 10 03 06  01 27 53.753   +20 32 00.33  .03153 1.0302 159.4 20.4 .259  84
2024 10 03 07  01 28 49.340   +20 16 10.99  .03152 1.0302 159.5 20.4 .268  85
2024 10 03 08  01 29 44.774   +20 00 19.78  .03151 1.0302 159.6 20.4 .277  86
2024 10 03 09  01 30 40.053   +19 44 26.79  .03150 1.0302 159.7 20.4 .286  87
2024 10 03 10  01 31 35.176   +19 28 32.11  .03149 1.0302 159.8 20.4 .295  88
2024 10 03 11  01 32 30.143   +19 12 35.84  .03148 1.0301 159.9 20.4 .304  89
2024 10 03 12  01 33 24.951   +18 56 38.05  .03148 1.0301 160.0 20.4 .313  90
2024 10 03 13  01 34 19.599   +18 40 38.83  .03147 1.0301 160.1 20.4 .323  91
2024 10 03 14  01 35 14.086   +18 24 38.28  .03147 1.0301 160.1 20.4 .332  92
2024 10 03 15  01 36 08.412   +18 08 36.48  .03146 1.0301 160.2 20.4 .342  93
2024 10 03 16  01 37 02.574   +17 52 33.53  .03146 1.0301 160.3 20.4 .352  94
2024 10 03 17  01 37 56.573   +17 36 29.51  .03146 1.0301 160.3 20.4 .363  95
2024 10 03 18  01 38 50.405   +17 20 24.51  .03146 1.0301 160.4 20.4 .373  96
2024 10 03 19  01 39 44.072   +17 04 18.63  .03146 1.0301 160.4 20.4 .383  97
2024 10 03 20  01 40 37.571   +16 48 11.95  .03147 1.0301 160.5 20.3 .394  97
2024 10 03 21  01 41 30.901   +16 32 04.56  .03147 1.0301 160.5 20.3 .405  98
2024 10 03 22  01 42 24.062   +16 15 56.56  .03148 1.0301 160.5 20.3 .416  99
2024 10 03 23  01 43 17.052   +15 59 48.03  .03148 1.0301 160.6 20.3 .427 100
2024 10 04 00  01 44 09.872   +15 43 39.06  .03149 1.0301 160.6 20.3 .438 100
2024 10 04 01  01 45 02.518   +15 27 29.75  .03150 1.0301 160.6 20.3 .450 101
2024 10 04 02  01 45 54.992   +15 11 20.18  .03151 1.0301 160.6 20.3 .461 102
2024 10 04 03  01 46 47.292   +14 55 10.44  .03152 1.0301 160.6 20.3 .473 102
2024 10 04 04  01 47 39.417   +14 39 00.63  .03153 1.0301 160.6 20.3 .485 103
2024 10 04 05  01 48 31.366   +14 22 50.82  .03154 1.0301 160.6 20.4 .496 103
2024 10 04 06  01 49 23.139   +14 06 41.12  .03156 1.0301 160.6 20.4 .508 104
2024 10 04 07  01 50 14.735   +13 50 31.60  .03157 1.0301 160.6 20.4 .521 105
2024 10 04 08  01 51 06.153   +13 34 22.36  .03159 1.0301 160.5 20.4 .533 105
2024 10 04 09  01 51 57.393   +13 18 13.48  .03161 1.0301 160.5 20.4 .545 106
2024 10 04 10  01 52 48.453   +13 02 05.05  .03163 1.0301 160.5 20.4 .558 106
2024 10 04 11  01 53 39.334   +12 45 57.15  .03165 1.0301 160.4 20.4 .570 107
2024 10 04 12  01 54 30.034   +12 29 49.88  .03167 1.0301 160.4 20.4 .583 107
2024 10 04 13  01 55 20.553   +12 13 43.32  .03169 1.0301 160.3 20.4 .596 108
2024 10 04 14  01 56 10.890   +11 57 37.54  .03172 1.0301 160.3 20.4 .609 108
2024 10 04 15  01 57 01.046   +11 41 32.64  .03174 1.0301 160.2 20.4 .622 109
2024 10 04 16  01 57 51.019   +11 25 28.70  .03177 1.0301 160.2 20.4 .635 109
2024 10 04 17  01 58 40.808   +11 09 25.80  .03179 1.0301 160.1 20.4 .648 110
2024 10 04 18  01 59 30.414   +10 53 24.02  .03182 1.0301 160.0 20.4 .661 110
2024 10 04 19  02 00 19.837   +10 37 23.45  .03185 1.0301 159.9 20.4 .674 110
2024 10 04 20  02 01 09.074   +10 21 24.15  .03188 1.0301 159.9 20.4 .688 111
2024 10 04 21  02 01 58.127   +10 05 26.23  .03191 1.0301 159.8 20.4 .701 111
2024 10 04 22  02 02 46.994   +09 49 29.74  .03194 1.0301 159.7 20.4 .715 112
2024 10 04 23  02 03 35.676   +09 33 34.77  .03198 1.0301 159.6 20.4 .729 112
2024 10 05 00  02 04 24.173   +09 17 41.39  .03201 1.0301 159.5 20.4 .742 112
2024 10 05 01  02 05 12.482   +09 01 49.69  .03205 1.0301 159.4 20.4 .756 113
2024 10 05 02  02 06 00.606   +08 45 59.73  .03209 1.0301 159.3 20.4 .770 113
2024 10 05 03  02 06 48.543   +08 30 11.58  .03212 1.0301 159.2 20.4 .784 113